Find Local Weather

World > North America > United States > Georgia

Ringgold, Georgia Regional Weather

Lat: 34.92N, Lon: 85.11W
Wx Zone: GAZ003
Feedback

Ringgold, GA Regional Weather

Expires:201902161800;;031709
ASUS42 KFFC 161710
RWRGA 
WEATHER ROUNDUP FOR GEORGIA
NATIONAL WEATHER SERVICE PEACHTREE CITY GA
1200 PM EST SAT FEB 16 2019

NOTE: "FAIR" INDICATES FEW OR NO CLOUDS BELOW 12,000 FEET WITH NO
SIGNIFICANT WEATHER AND/OR OBSTRUCTIONS TO VISIBILITY. 

* = USE WITH CAUTION. THE STATIONS MARKED WITH AN ASTERISK MAY NOT
REPORT WEATHER SUCH AS PRECIPITATION, FOG, OR THUNDER AND ARE NOT 
QUALITY CONTROLLED BY NWS.

THE REMARK "TC" DENOTES TEMPERATURE READING IN DEGREES CELSIUS.


GAZ001>058-161800-
NORTH GEORGIA
  
CITY           SKY/WX    TMP DP  RH WIND       PRES   REMARKS
ATLANTA        PTSUNNY   59  50  72 NW7       29.80S                  
ATHENS         FAIR      67  52  58 W9G16     29.74F                  
CHAMBLEE       CLOUDY    55  50  83 W9        29.80S                  
PEACHTREE CITY FAIR      64  53  67 NW7       29.80F                  
ROME           CLOUDY    52  45  77 N10       29.83F                  
WEST ATLANTA   FAIR      57  52  83 NW8       29.80F                  
GAINESVILLE    FAIR      58  52  80 W9        29.78R                  
CARTERSVILLE   CLOUDY    50  46  86 N5        29.83S                  

  
CITY           SKY/WX    TMP DP  RH WIND       PRES   REMARKS
DALTON*        CLOUDY    45  43  93 N12       29.86S                  
LAWRENCEVILLE* FAIR      57  51  80 W13       29.78S                  
MARIETTA       CLOUDY    51  48  88 W9        29.80F                  
KENNESAW*      CLOUDY    48  46  93 NW7       29.83R                  
CANTON*        CLOUDY    50  46  87 W8        29.81F                  
BLAIRSVILLE*   CLOUDY    48  46  91 CALM      29.80S                  
$$


SKY/WX - Weather  TMP - Temperature  DP - Dew Point  RH - Relative Humidity
WIND - Wind Direction/Speed PRES - Barometric Pressure VSB - Visibility
WCI - Wind Chill Index E13G22 Wind - East Wind 13 mph/Gusts of 22 mph